Location: Asbacherhof
(48.8543°N, 10.7903°E)
Time: 22:53:10
(UTC+00:00)

USA 306 - Pass Details

Date: 26 May 2022
Orbit: 545 x 556 km, 54.0° (Epoch: 20 June)

Event Time Altitude Azimuth Distance (km) Brightness Sun altitude
Exits shadow 01:42:37 10° 262° (W) 1,861 5.1 -12.6°
Reaches altitude 10° 01:42:41 10° 262° (W) 1,836 5.1 -12.6°
Maximum altitude 01:46:48 56° 342° (NNW) 665 3.4 -12.2°
Drops below altitude 10° 01:50:56 10° 61° (ENE) 1,851 6.6 -11.8°
Sets 01:53:14 0° 66° (ENE) 2,751 7.6 -11.6°
